MicroStrategy Net Profit Margin 2006-2021 | MSTR

Current and historical net profit margin for MicroStrategy (MSTR) from 2006 to 2021. Net profit margin can be defined as net Income as a portion of total sales revenue. MicroStrategy net profit margin for the three months ending June 30, 2021 was .
MicroStrategy Net Profit Margin Historical Data
Date TTM Revenue TTM Net Income Net Margin
2021-06-30 $0.51B $-0.42B -83.00%
2021-03-31 $0.49B $-0.12B -23.98%
2020-12-31 $0.48B $-0.01B -1.46%
2020-09-30 $0.48B $0.00B 0.41%
2020-06-30 $0.48B $0.03B 5.46%
2020-03-31 $0.48B $0.04B 8.90%
2019-12-31 $0.49B $0.03B 6.98%
2019-09-30 $0.49B $0.03B 5.15%
2019-06-30 $0.49B $0.03B 5.75%
2019-03-31 $0.49B $0.01B 2.65%
2018-12-31 $0.50B $0.02B 4.62%
2018-09-30 $0.50B $-0.01B -1.00%
2018-06-30 $0.51B $-0.00B 0.00%
2018-03-31 $0.50B $0.00B 0.99%
2017-12-31 $0.50B $0.02B 3.78%
2017-09-30 $0.51B $0.08B 14.93%
2017-06-30 $0.51B $0.09B 16.57%
2017-03-31 $0.52B $0.09B 18.18%
2016-12-31 $0.51B $0.09B 17.90%
2016-09-30 $0.52B $0.10B 19.19%
2016-06-30 $0.52B $0.10B 18.60%
2016-03-31 $0.53B $0.10B 18.82%
2015-12-31 $0.53B $0.11B 19.77%
2015-09-30 $0.54B $0.09B 16.60%
2015-06-30 $0.56B $0.06B 11.49%
2015-03-31 $0.57B $0.03B 5.65%
2014-12-31 $0.58B $0.01B 1.03%
2014-09-30 $0.60B $-0.00B -0.17%
2014-06-30 $0.59B $0.02B 2.89%
2014-03-31 $0.58B $0.03B 4.28%
2013-12-31 $0.58B $0.08B 14.41%
2013-09-30 $0.57B $0.08B 13.25%
2013-06-30 $0.56B $0.06B 11.25%
2013-03-31 $0.56B $0.07B 12.93%
2012-12-31 $0.57B $0.02B 3.54%
2012-09-30 $0.54B $0.02B 3.86%
2012-06-30 $0.55B $0.02B 3.82%
2012-03-31 $0.55B $0.02B 3.07%
2011-12-31 $0.54B $0.02B 3.35%
2011-09-30 $0.54B $0.03B 4.99%
2011-06-30 $0.51B $0.03B 5.64%
2011-03-31 $0.48B $0.04B 7.85%
2010-12-31 $0.46B $0.04B 9.67%
2010-09-30 $0.42B $0.05B 11.14%
2010-06-30 $0.41B $0.06B 14.84%
2010-03-31 $0.39B $0.06B 15.09%
2009-12-31 $0.38B $0.08B 19.84%
2009-09-30 $0.37B $0.07B 18.53%
2009-06-30 $0.35B $0.06B 16.38%
2009-03-31 $0.36B $0.06B 15.77%
2008-12-31 $0.36B $0.04B 11.36%
2008-09-30 $0.36B $0.05B 12.40%
2008-06-30 $0.36B $0.05B 14.60%
2008-03-31 $0.35B $0.06B 16.19%
2007-12-31 $0.34B $0.06B 17.61%
2007-09-30 $0.33B $0.06B 19.27%
2007-06-30 $0.31B $0.06B 19.43%
2007-03-31 $0.31B $0.07B 21.29%
2006-12-31 $0.31B $0.07B 22.90%
2006-09-30 $0.30B $0.07B 22.82%
2006-06-30 $0.29B $0.06B 22.38%
2006-03-31 $0.28B $0.07B 23.47%
2005-12-31 $0.27B $0.07B 24.25%
Sector Industry Market Cap Revenue
Computer and Technology Computer Software $6.092B $0.481B
MicroStrategy Incorporated, a leading worldwide provider of business intelligence software, today announced that GT Nexus has selected MicroStrategy to power the customer-facing analytics and reporting capabilities on its Global Logistics portal. The GT Nexus portal is an on demand technology platform that is used by importers, exporters, transportation carriers, suppliers, banks, and other partners to manage goods that are moving around the world. The GT Nexus system captures and stores hard-to-get data associated with global supply chains, and then fuels a range of Web applications that can be used by constituents to lower supply chain costs and improve control. MicroStrategy will help GT Nexus to deliver a wide range of analytics and reporting capabilities to its customers, which include Home Depot, Kmart, Xerox, Weyerhaeuser, and American Eagle Outfitters.
Stock Name Country Market Cap PE Ratio
Microsoft (MSFT) United States $2157.676B 36.03
Adobe (ADBE) United States $295.978B 63.79
Oracle (ORCL) United States $250.554B 21.47
Salesforce, Inc (CRM) United States $223.286B 69.09
SAP SE (SAP) Germany $178.796B 22.74
Intuit (INTU) United States $144.877B 69.03
Dassault Systemes SA (DASTY) France $74.871B 65.78
Autodesk (ADSK) United States $72.079B 124.10
VMware (VMW) United States $65.902B 30.67
Synopsys (SNPS) United States $44.125B 56.15
Cadence Design Systems (CDNS) United States $41.475B 58.08
ANSYS (ANSS) United States $32.318B 66.46
SS&C Technologies Holdings (SSNC) United States $19.574B 17.51
Nuance Communications (NUAN) United States $15.665B 144.10
PTC (PTC) United States $15.473B 54.27
Open Text (OTEX) Canada $14.082B 15.96
Citrix Systems (CTXS) United States $12.796B 30.12
Manhattan Associates (MANH) United States $10.385B 110.68
Pegasystems (PEGA) United States $10.344B 0.00
Aspen Technology (AZPN) United States $9.865B 43.17
Trend Micro (TMICY) Japan $7.431B 29.02
Descartes Systems Group (DSGX) Canada $6.167B 107.18
ACI Worldwide (ACIW) United States $3.959B 21.48
CommVault Systems (CVLT) United States $3.519B 91.32
Blackbaud (BLKB) United States $3.466B 59.16
Cornerstone OnDemand (CSOD) United States $3.229B 21.68
Verint Systems (VRNT) United States $2.764B 16.55
Progress Software (PRGS) United States $2.012B 15.53
PROS Holdings (PRO) United States $1.868B 0.00
Bottomline Technologies (EPAY) United States $1.826B 143.68
QAD (QADB) United States $1.781B 140.98
Avid Technology (AVID) United States $1.634B 41.08
Sapiens (SPNS) Israel $1.374B 25.08
Canaan (CAN) China $1.237B 0.00
OptimizeRx (OPRX) United States $0.974B 2789.00
Simulations Plus (SLP) United States $0.945B 82.33
Magic Software Enterprises (MGIC) Israel $0.851B 22.24
American Software (AMSWA) United States $0.728B 85.58
Icad Inc (ICAD) United States $0.363B 0.00
Smith Micro Software (SMSI) United States $0.278B 65.00
ServiceSource (SREV) United States $0.155B 0.00
Park City (PCYG) United States $0.109B 51.00
Neonode (NEON) Sweden $0.060B 0.00
NetSol Technologies (NTWK) United States $0.053B 21.18
BSQUARE (BSQR) United States $0.039B 0.00
GSE Systems (GVP) United States $0.028B 0.00
Duolingo (DUOL) United States $0.000B 0.00